Terug naar catalogus

ONEWEB-0186

ActiefCommunicatiePO
NORAD 48229·PAYLOAD·🇬🇧 United Kingdom

Gelanceerd Apr 25, 2021 vanaf Vostochny Cosmodrome

Loading…

Volgende Passages (komende 24 uur)

TLE

VersSource: CelesTrak SupGP

Epoch: Sep 14, 2026, 14:05 UTC

1 48229C 21031V   26257.58699491 -.00000990  00000+0 -26733-2 0  2574
2 48229  87.8908 271.8751 0001855  90.3609  59.3051 13.14506976    10

Volg ONEWEB-0186 in realtime met AllMySat

Download on the App Store